Location: Montbazon
(47.2835°N, 0.6999°E)
Time: 15:59:38
(UTC+00:00)

Cosmos 1378 Rocket - Pass Details

Date: 08 November 2025
Orbit: 595 x 619 km, 82.5° (Epoch: 12 December)

Event Time Altitude Azimuth Distance (km) Brightness Sun altitude
Rises 06:12:45 0° 186° (S) 2,831 7.1 -6.9°
Reaches altitude 10° 06:14:57 10° 186° (S) 1,932 6.3 -6.6°
Maximum altitude 06:19:13 86° 99° (E) 605 3.6 -5.9°
Drops below altitude 10° 06:23:31 10° 10° (N) 1,943 6.0 -5.2°
Sets 06:25:44 0° 10° (N) 2,850 6.9 -4.8°
